Location: Christianberg
(48.9086°N, 14.0209°E)
Time: 22:29:09
(UTC+00:00)

USA 307 - Pass Details

Date: 20 June 2021
Orbit: 565 x 576 km, 54.0° (Epoch: 17 July)

Event Time Altitude Azimuth Distance (km) Brightness Sun altitude
Exits shadow 02:13:23 - 252° (WSW) 2,311 5.5 -6.4°
Reaches altitude 10° 02:14:30 10° 254° (WSW) 1,866 5.0 -6.3°
Maximum altitude 02:18:44 68° 337° (NNW) 615 3.2 -5.8°
Drops below altitude 10° 02:22:58 10° 61° (ENE) 1,867 7.0 -5.3°
Sets 02:25:14 0° 64° (ENE) 2,765 8.0 -5.1°
